SCP
0 0 0 0 0 0 0 0 0 0 0 0 0 0 0 0 0 0 0 0 0 0 0 0 0 0 0 0 0 0 0 0 0 0 0 0 0 0 0 0 0 0 0 0
0 0 0 0 0 0 0 0 0 0 0 0 0 0 0 0 0 0 0 0 0 0 0 0 0 0 0 0 0 0 0 0 0 0 0 0 0 0 0 0 0 0 0 0
0 0 0 0 0 0 0 0 0 0 0 0 0 0 0 0 0 0 0 0 0 0 0 -0 -0 0 0 0 0 0 0 0 0 0 0 0 0 0 0 0 0 0 0 0
0 0 0 0 0 0 0 0 0 0 0 0 0 0 0 0 0 0 0 0 -0 -0 -0 -0 0 0 0 0 0 0 0 0 0 0 0 0 0 0 0 0 0 0 0 0
0 0 0 0 0 0 0 0 0 0 0 0 0 0 0 0 0 0 -0 -0 -0 -0 -0 0 0 0 0 0 0 0 0 0 0 0 0 0 0 0 0 0 0 0 0 0
0 0 0 0 0 0 0 0 0 0 0 0 0 0 0 0 0 0 -0 -0 -0 -0 -0 0 0 0 0 0 0 0 0 0 0 0 0 0 0 0 0 0 0 0 0 0
0 0 0 0 0 0 0 0 0 0 0 0 0 0 0 0 0 0 -0 -0 -0 -0 0 0 0 0 0 0 0 0 0 0 0 0 0 0 0 0 0 0 0 0 0 0
0 0 0 0 0 0 0 0 0 0 0 0 0 0 0 0 0 0 -0 -0 -0 0 0 0 0 0 0 0 0 0 0 0 0 0 0 0 0 0 0 0 0 0 0 0
0 0 0 0 0 0 0 0 0 0 0 0 0 0 0 0 0 0 0 0 0 0 0 0 0 0 0 0 0 0 0 0 0 0 0 0 0 0 0 0 0 0 0 0
0 0 0 0 0 0 0 0 0 0 0 0 0 0 0 0 0 0 0 0 0 0 0 0 0 0 0 0 0 0 0 0 0 0 0 0 0 0 0 0 0 0 0 0
0 0 0 0 0 0 0 0 0 0 0 0 0 0 0 0 0 0 0 0 -0 -0 0 0 0 0 0 0 0 0 0 0 0 0 0 0 0 0 0 0 0 0 0 0
0 0 0 0 0 0 0 0 0 0 0 0 0 0 0 0 0 0 0 0 -0 -0 -0 0 0 0 0 0 0 0 0 0 0 0 0 0 0 0 0 0 0 0 0 0
0 0 0 0 0 0 0 0 0 0 0 0 -0 0 0 0 0 0 0 0 0 -0 0 0 0 0 0 0 0 0 0 0 0 0 0 0 0 0 0 0 0 0 0 0
0 0 0 0 0 0 0 0 0 0 0 0 0 0 0 0 0 0 0 0 0 0 0 0 0 0 0 0 0 0 0 0 0 0 0 0 0 0 0 0 0 0 0 0
0 0 0 0 0 0 0 0 0 0 0 0 0 0 0 0 0 0 0 0 0 0 0 0 0 0 0 0 0 0 0 0 0 0 0 0 0 0 0 0 0 0 0 0
0 0 0 0 0 0 0 0 0 0 0 0 0 0 0 0 0 0 0 0 0 0 0 0 0 0 0 0 0 0 0 0 0 0 0 0 0 0 0 0 0 0 0 0
0 0 0 0 0 0 0 0 0 0 0 0 0 0 0 0 0 0 0 0 0 0 0 0 0 0 0 0 0 0 0 0 0 0 0 0 0 0 0 0 0 0 0 0
0 0 0 0 0 0 0 -0 0 0 0 0 0 0 0 0 0 0 0 0 0 0 0 0 0 0 0 0 0 0 0 0 0 0 0 0 0 0 0 0 0 0 0 0
0 0 0 0 0 0 0 0 0 0 0 0 0 0 0 0 0 0 0 0 0 0 0 0 0 0 0 0 0 0 0 0 0 0 0 0 0 0 0 0 0 0 0 0
0 0 0 0 0 0 0 0 0 0 0 0 0 0 0 0 0 0 0 0 0 0 0 0 0 0 0 0 0 0 0 0 0 0 0 0 0 0 0 0 0 0 0 0
0 0 0 0 0 0 0 0 0 0 0 0 0 0 0 0 0 0 0 0 0 0 0 0 0 0 0 0 0 0 0 0 0 0 0 0 0 0 0 0 0 0 0 0
0 0 0 0 0 0 0 0 0 0 0 0 0 0 0 0 0 0 0 0 0 0 0 0 0 0 0 0 0 0 0 0 0 0 0 0 0 0 0 0 0 0 0 0
0 0 0 0 0 0 0 0 0 0 0 0 0 0 0 0 0 0 0 0 0 0 0 0 0 0 0 0 0 0 0 0 0 0 0 0 0 0 0 0 0 0 0 0
0 0 0 0 0 0 0 0 0 0 0 0 0 0 0 0 0 0 0 0 0 0 0 0 0 0 0 0 0 0 0 0 0 0 0 0 0 0 0 0 0 0 0 0
0 0 0 0 0 0 0 0 0 0 0 0 0 0 0 0 0 0 0 0 0 0 0 0 0 0 0 0 0 0 0 0 0 0 0 0 0 0 0 0 0 0 0 0
0 0 0 0 0 0 0 0 0 0 0 0 0 0 0 0 0 0 0 0 0 0 0 0 0 0 0 0 0 0 0 0 0 0 0 0 0 0 0 0 0 0 0 0
Wind_Speed
2 3 3 6 7 5 2 2 1 1 2 5 6 5 1 1 2 3 2 2 2 1 1 1 1 1 2 2 3 3 3 3 2 2 1 1 0 0 0 0 1 1 1 0
3 3 6 3 3 3 3 3 2 3 4 4 4 3 1 1 0 1 2 2 2 1 1 1 2 2 2 2 3 3 3 3 2 1 1 1 1 0 0 1 1 1 1 1
4 5 1 2 2 3 1 3 4 4 3 5 4 2 1 2 2 1 2 3 2 4 5 4 3 3 4 4 4 3 3 2 2 2 2 2 2 2 1 1 2 2 3 3
3 3 1 1 2 3 1 1 5 5 4 2 2 0 2 2 2 2 3 4 4 5 4 4 4 4 5 5 3 2 2 1 1 2 2 2 2 1 2 1 2 3 3 4
3 1 1 2 2 4 3 4 6 5 4 3 5 2 4 1 2 4 5 6 5 5 4 5 5 4 3 2 2 2 2 1 1 1 2 2 1 2 1 1 3 3 4 4
3 2 1 1 3 5 7 6 7 6 5 4 3 2 4 3 5 4 4 5 5 4 4 4 2 1 1 0 1 1 1 1 0 0 1 2 2 2 3 3 3 3 3 4
6 4 0 3 4 3 4 6 5 5 5 2 2 1 7 6 5 5 5 5 4 3 3 3 2 2 1 1 1 1 1 0 1 1 1 2 2 3 4 4 4 4 3 3
1 5 3 2 4 5 3 6 6 3 2 3 2 3 7 5 4 4 5 4 3 3 3 3 3 2 2 1 1 1 1 1 1 1 2 2 2 2 3 4 4 4 4 5
3 4 3 0 2 8 5 3 5 7 3 1 3 5 7 2 2 3 3 3 3 2 2 2 2 1 1 1 1 1 1 1 2 2 3 3 3 3 4 5 4 4 5 5
5 2 3 3 4 5 5 8 5 6 4 0 3 4 5 5 5 4 3 4 3 2 2 2 2 1 1 0 0 1 1 2 3 3 3 3 4 4 4 4 5 6 6 5
3 2 4 3 2 1 3 4 6 5 4 6 2 7 7 7 6 6 6 5 5 4 3 2 1 0 0 1 1 2 3 3 4 4 4 4 5 5 5 5 6 6 6 6
3 5 1 4 3 1 2 5 7 5 3 4 4 9 5 5 6 5 5 4 3 3 2 2 1 1 1 2 3 3 4 4 5 4 4 5 5 5 5 6 6 6 6 6
5 6 4 8 7 4 1 2 4 6 6 5 4 8 3 0 1 2 3 3 2 3 2 1 1 2 3 4 4 5 5 5 5 4 4 5 6 6 6 7 6 6 7 7
7 5 6 5 7 3 3 2 5 6 5 5 7 7 4 3 3 3 2 2 3 2 2 2 3 4 5 5 5 5 6 5 5 4 5 6 6 6 7 7 7 7 7 7
5 4 4 5 5 3 4 5 5 6 7 8 8 7 9 7 6 4 3 4 3 3 4 5 5 5 5 5 5 5 5 5 4 5 6 7 7 7 7 7 8 8 8 8
3 4 2 2 2 2 3 4 4 4 4 4 3 6 5 2 3 3 5 6 5 6 6 7 6 6 6 6 6 5 5 5 4 5 7 7 7 7 7 8 8 8 8 8
3 6 4 3 4 2 4 4 4 4 4 7 7 7 3 4 6 7 7 7 7 8 7 7 7 7 6 6 6 6 6 5 5 6 7 7 7 8 8 8 8 8 8 8
7 6 4 2 2 3 9 3 4 3 3 5 4 4 6 6 5 4 6 8 8 8 8 7 6 6 5 5 5 5 5 5 5 6 7 7 7 8 8 8 9 8 7 8
5 8 5 4 2 5 7 3 6 5 4 5 6 5 4 3 3 4 7 8 9 9 8 7 6 5 4 5 5 4 5 5 6 7 7 7 7 8 9 9 9 8 7 8
5 5 6 4 4 6 10 4 5 5 5 6 8 8 6 7 2 7 7 9 9 8 6 5 4 4 5 5 3 4 6 6 7 8 8 8 7 8 9 9 9 7 7 8
2 3 4 4 4 9 8 3 7 4 10 7 10 9 10 10 10 6 4 6 8 7 6 5 4 4 6 4 3 5 6 7 8 7 7 8 8 8 9 8 7 8 8 8
4 4 4 4 3 9 4 8 10 11 5 6 10 10 11 11 8 6 5 7 7 6 6 5 5 6 5 4 4 6 7 7 6 6 7 8 8 8 7 7 8 7 7 8
5 7 6 8 9 7 5 8 7 4 5 7 9 10 11 10 9 8 7 8 7 7 6 5 5 6 5 5 5 6 7 6 5 6 8 8 9 8 7 7 8 7 6 6
3 3 3 4 8 7 7 6 5 7 8 8 9 9 10 11 10 9 8 7 7 7 6 5 5 6 6 5 5 7 7 5 5 7 8 7 8 8 8 6 5 6 6 6
5 3 2 5 8 8 7 6 6 5 5 5 6 8 11 11 10 9 8 8 7 7 5 5 6 7 7 5 6 6 5 4 5 7 7 7 7 7 8 7 6 7 7 7
3 5 5 7 7 5 8 6 3 4 6 7 7 7 7 10 10 9 8 8 7 7 5 5 6 7 7 5 6 6 5 4 5 6 7 6 6 6 6 7 8 8 8 10
Wind_Direction
103 89 223 225 204 201 191 164 116 53 43 75 93 105 93 34 80 98 101 108 127 149 157 164 180 161 135 152 156 161 153 155 141 128 134 140 197 264 302 273 279 293 297 272
44 259 240 211 181 158 149 127 114 81 56 87 97 79 38 358 347 197 189 199 194 191 212 221 209 211 215 213 194 178 174 174 178 165 155 159 154 192 255 319 332 334 335 306
213 246 231 145 147 132 140 168 165 144 91 64 94 42 3 338 345 286 237 229 221 219 213 218 224 223 224 223 214 198 196 192 182 150 104 81 58 27 -0 339 324 322 322 309
242 261 205 185 210 161 231 212 137 126 112 51 44 141 293 304 310 257 247 245 246 248 234 228 231 232 227 226 214 204 199 200 182 153 152 158 170 221 246 260 287 307 312 307
276 253 198 220 229 153 132 78 87 89 101 67 26 59 297 317 274 252 247 249 249 251 237 232 229 231 240 231 204 193 178 207 209 179 176 173 202 235 269 288 299 304 305 302
268 273 191 166 55 106 121 77 60 52 65 46 353 42 291 247 229 240 237 243 245 240 230 230 228 219 233 192 155 155 163 245 297 214 201 203 235 259 281 287 291 292 294 296
341 337 337 119 96 60 82 84 39 12 20 292 293 279 256 254 233 225 235 245 248 234 223 218 209 206 199 167 142 106 118 325 335 311 276 259 256 256 257 267 271 278 284 281
1 312 283 179 165 159 150 129 147 182 208 284 325 264 258 257 246 232 236 243 249 235 220 208 198 187 182 163 126 110 108 304 315 302 290 284 268 253 256 258 257 260 260 265
182 267 298 72 131 129 131 121 140 119 116 36 299 293 302 272 252 224 220 217 225 221 202 180 163 155 160 143 139 159 182 272 289 289 288 284 279 267 267 272 265 262 261 267
164 240 308 332 77 52 119 136 100 105 126 304 308 286 252 254 241 227 212 212 211 186 171 151 133 134 148 184 301 312 260 266 278 284 278 280 279 273 270 274 274 271 271 271
126 152 318 12 52 161 113 93 99 100 139 146 231 267 227 223 223 217 218 209 200 196 187 174 166 186 303 313 294 284 282 279 281 281 280 284 283 282 280 274 273 275 277 277
120 114 330 296 293 271 159 153 146 143 185 162 174 264 267 236 230 214 216 207 186 174 163 161 186 285 295 286 285 284 284 281 277 279 284 282 283 285 283 278 278 278 277 277
132 100 46 350 343 350 44 124 131 121 115 147 172 262 305 31 175 201 199 182 153 149 151 173 262 273 276 279 284 288 286 280 281 285 286 287 287 285 280 277 279 281 280 280
113 108 151 195 229 257 288 191 152 132 144 188 218 246 278 232 211 213 186 165 162 183 200 229 255 266 272 277 280 285 286 280 282 285 285 285 284 281 279 279 280 280 278 278
109 154 208 233 247 242 246 245 190 188 186 184 224 224 240 222 214 213 188 172 182 212 233 241 249 261 271 277 279 278 279 282 285 289 288 283 284 284 283 282 282 281 279 279
113 159 174 285 288 277 260 253 198 192 185 201 218 249 248 204 150 170 183 186 208 230 241 249 255 261 265 267 271 275 276 280 286 284 283 285 288 289 286 284 284 285 284 282
141 138 136 260 310 11 277 242 204 202 194 171 199 232 182 171 194 204 202 203 216 230 240 246 250 252 257 260 259 262 268 281 285 282 284 287 289 290 288 289 291 288 286 285
141 129 135 157 59 241 250 268 194 178 212 204 213 214 191 199 209 219 201 202 221 233 240 245 247 253 258 259 260 264 273 279 282 284 286 288 290 291 292 291 288 286 285 285
142 134 125 132 176 277 291 233 163 157 242 211 195 200 179 106 54 301 225 209 217 225 229 234 237 241 256 264 264 273 280 282 284 284 285 287 289 292 295 293 290 288 287 288
78 103 118 136 160 228 250 230 154 105 278 226 188 190 162 125 154 258 234 209 223 232 233 235 241 243 255 261 261 265 275 281 280 280 283 286 287 289 291 289 288 286 284 285
58 75 132 162 202 254 251 160 128 165 242 211 189 186 167 181 203 225 219 205 214 221 226 228 231 240 249 256 249 257 269 271 271 278 285 289 288 287 285 283 283 287 288 289
188 165 180 147 183 258 217 145 181 213 221 182 187 186 186 209 225 236 228 219 216 218 226 221 223 244 254 249 235 255 264 266 277 283 288 291 291 290 291 289 291 289 287 290
198 192 187 187 214 240 212 208 224 188 195 197 191 195 192 205 222 224 224 223 219 218 223 218 218 244 261 250 229 249 262 274 284 289 291 293 296 294 288 287 292 297 293 287
270 158 160 255 271 263 252 246 238 208 211 208 195 188 182 198 212 214 218 217 217 222 223 216 215 237 256 255 242 243 263 275 278 285 292 296 300 302 301 293 286 287 290 291
243 187 203 266 280 302 294 252 236 227 227 215 203 194 194 199 210 207 209 211 214 219 219 208 214 232 248 258 261 261 262 264 274 284 291 297 297 298 303 301 289 283 275 265
224 189 192 237 247 229 261 274 254 216 221 211 201 211 210 202 210 203 206 208 207 213 212 215 225 236 250 256 263 268 262 251 266 285 294 297 300 302 302 305 307 289 274 279